Weather History for Catania, Italy

Change the Weather History Date:

Saturday, February 16, 2013

  Actual Average Record
Temperature  
Mean Temperature 50 °F -  
Max Temperature 59 °F 63 °F 72 °F (2014)
Min Temperature 41 °F 43 °F 32 °F (1999)
Degree Days  
Heating Degree Days 15    
Moisture  
Dew Point 38 °F    
Average Humidity 68    
Maximum Humidity 87    
Minimum Humidity 34    
Precipitation  
Precipitation 0.00 in 0.06 in - ()
Sea Level Pressure  
Sea Level Pressure 30.00 in    
Wind  
Wind Speed 7 mph ()    
Max Wind Speed 17 mph    
Max Gust Speed 26 mph    
Visibility 6.2 miles    
Events Rain    
Averages and records for this station are not official NWS values.
T = Trace of Precipitation, MM = Missing Value Source: Averaged Metar Reports

Daily Weather History Graph

Daily Weather History Graph

Search for Another Location

Airport:

Trip Planner

Search our weather history database for the weather conditions in past years. The results will help you decide how hot, cold, wet, or windy it might be!

Date:

Astronomy

Feb. 16, 2013 Rise Set
Actual Time 6:47 AM CET 5:40 PM CET
Civil Twilight 6:21 AM CET 6:07 PM CET
Nautical Twilight 5:50 AM CET 6:37 PM CET
Astronomical Twilight 5:20 AM CET 7:07 PM CET
Moon 9:58 AM CET (2/16) No Moon Set
Length of Visible Light 11h 45m
Length of Day
10h 52m
Waxing Crescent, 37% of the Moon is Illuminated
Feb 16
Waxing Crescent
Feb 17
First Quarter
Feb 25
Full
Mar 4
Last Quarter
Mar 11
New

Hourly Weather History & Observations

Time (CET) Temp. Windchill Dew Point Humidity Pressure Visibility Wind Dir Wind Speed Gust Speed Precip Events Conditions
12:20 AM 44.6 °F 40.7 °F 35.6 °F 71% 30.04 in 6.2 mi West 6.9 mph - N/A   Partly Cloudy
12:50 AM 44.6 °F 40.2 °F 37.4 °F 76% 30.04 in 6.2 mi West 8.1 mph - N/A Rain Light Rain
1:20 AM 44.6 °F 40.2 °F 37.4 °F 76% 30.04 in 6.2 mi West 8.1 mph - N/A   Scattered Clouds
1:50 AM 42.8 °F 37.5 °F 37.4 °F 81% 30.01 in 6.2 mi West 9.2 mph - N/A   Scattered Clouds
2:20 AM 42.8 °F 38.6 °F 37.4 °F 81% 30.01 in 6.2 mi West 6.9 mph - N/A   Scattered Clouds
2:50 AM 41.0 °F 37.1 °F 37.4 °F 87% 30.01 in 6.2 mi West 5.8 mph - N/A   Partly Cloudy
3:20 AM 41.0 °F 38.0 °F 35.6 °F 81% 30.01 in 6.2 mi WNW 4.6 mph - N/A   Partly Cloudy
3:50 AM 41.0 °F 38.0 °F 35.6 °F 81% 30.01 in 6.2 mi West 4.6 mph - N/A   Partly Cloudy
4:20 AM 41.0 °F 37.1 °F 37.4 °F 87% 30.01 in 6.2 mi West 5.8 mph - N/A   Scattered Clouds
4:50 AM 41.0 °F 37.1 °F 35.6 °F 81% 29.98 in 6.2 mi West 5.8 mph - N/A   Scattered Clouds
5:20 AM 41.0 °F 35.8 °F 37.4 °F 87% 29.98 in 6.2 mi WSW 8.1 mph - N/A   Scattered Clouds
5:50 AM 41.0 °F 35.2 °F 37.4 °F 87% 29.98 in 6.2 mi WSW 9.2 mph - N/A   Scattered Clouds
6:20 AM 41.0 °F 35.2 °F 37.4 °F 87% 29.98 in 6.2 mi West 9.2 mph - N/A Rain Light Rain
6:50 AM 42.8 °F 38.6 °F 37.4 °F 81% 29.98 in 6.2 mi West 6.9 mph - N/A Rain Light Rain
7:20 AM 42.8 °F 37.5 °F 39.2 °F 87% 29.98 in 6.2 mi WSW 9.2 mph - N/A   Mostly Cloudy
7:50 AM 44.6 °F 40.2 °F 37.4 °F 76% 29.98 in 6.2 mi WSW 8.1 mph - N/A   Scattered Clouds
8:20 AM 46.4 °F 41.9 °F 39.2 °F 76% 29.98 in 6.2 mi West 9.2 mph - N/A   Partly Cloudy
8:50 AM 50.0 °F - 41.0 °F 71% 29.98 in 6.2 mi WSW 5.8 mph - N/A   Partly Cloudy
9:20 AM 50.0 °F - 41.0 °F 71% 29.98 in 6.2 mi West 11.5 mph - N/A   Partly Cloudy
9:50 AM 51.8 °F - 41.0 °F 67% 29.98 in 6.2 mi West 13.8 mph - N/A   Partly Cloudy
10:20 AM 53.6 °F - 39.2 °F 58% 29.98 in 6.2 mi West 12.7 mph - N/A   Partly Cloudy
10:50 AM 55.4 °F - 33.8 °F 44% 29.98 in 6.2 mi West 11.5 mph - N/A   Partly Cloudy
11:20 AM 57.2 °F - 35.6 °F 44% 29.98 in 6.2 mi West 12.7 mph - N/A   Partly Cloudy
11:50 AM 57.2 °F - 35.6 °F 44% 29.98 in 6.2 mi West 13.8 mph - N/A   Scattered Clouds
12:20 PM 57.2 °F - 32.0 °F 38% 29.95 in 6.2 mi West 13.8 mph - N/A   Scattered Clouds
12:50 PM 59.0 °F - 33.8 °F 39% 29.95 in 6.2 mi WNW 13.8 mph 26.5 mph N/A   Scattered Clouds
1:20 PM 59.0 °F - 30.2 °F 34% 29.95 in 6.2 mi West 17.3 mph - N/A   Scattered Clouds
1:50 PM 57.2 °F - 37.4 °F 48% 29.95 in 6.2 mi North 8.1 mph - N/A   Scattered Clouds
2:20 PM 57.2 °F - 39.2 °F 51% 29.95 in 6.2 mi NE 9.2 mph - N/A   Scattered Clouds
3:20 PM 55.4 °F - 41.0 °F 58% 29.98 in 6.2 mi East 10.4 mph - N/A   Scattered Clouds
3:50 PM 55.4 °F - 39.2 °F 54% 29.98 in 6.2 mi East 9.2 mph - N/A   Mostly Cloudy
4:20 PM 53.6 °F - 39.2 °F 58% 29.98 in 6.2 mi East 6.9 mph - N/A   Mostly Cloudy
4:50 PM 55.4 °F - 39.2 °F 54% 29.98 in 6.2 mi ENE 8.1 mph - N/A   Scattered Clouds
5:20 PM 53.6 °F - 41.0 °F 62% 29.98 in 6.2 mi East 4.6 mph - N/A   Scattered Clouds
5:50 PM 51.8 °F - 41.0 °F 67% 29.98 in 6.2 mi East 6.9 mph - N/A   Scattered Clouds
6:20 PM 50.0 °F - 41.0 °F 71% 30.01 in 6.2 mi Variable 4.6 mph - N/A   Scattered Clouds
6:50 PM 51.8 °F - 41.0 °F 67% 30.01 in 6.2 mi SE 3.5 mph - N/A   Partly Cloudy
7:20 PM 51.8 °F - 41.0 °F 67% 30.01 in 6.2 mi SSW 3.5 mph - N/A   Scattered Clouds
7:50 PM 50.0 °F - 39.2 °F 66% 30.01 in 6.2 mi West 3.5 mph - N/A   Scattered Clouds
8:20 PM 50.0 °F - 41.0 °F 71% 30.01 in 6.2 mi SW 4.6 mph - N/A   Scattered Clouds
8:50 PM 48.2 °F - 39.2 °F 71% 30.01 in 6.2 mi SSW 3.5 mph - N/A   Scattered Clouds
9:20 PM 46.4 °F 45.2 °F 39.2 °F 76% 30.04 in 6.2 mi West 3.5 mph - N/A   Mostly Cloudy
9:50 PM 48.2 °F - 41.0 °F 76% 30.04 in 6.2 mi WSW 3.5 mph - N/A   Mostly Cloudy
10:20 PM 46.4 °F 43.5 °F 39.2 °F 76% 30.04 in 6.2 mi WSW 5.8 mph - N/A   Scattered Clouds
10:50 PM 44.6 °F 41.4 °F 37.4 °F 76% 30.04 in 6.2 mi SW 5.8 mph - N/A   Scattered Clouds
11:20 PM 42.8 °F 38.0 °F 37.4 °F 81% 30.04 in 6.2 mi West 8.1 mph - N/A   Partly Cloudy
11:50 PM 42.8 °F 38.0 °F 35.6 °F 76% 30.04 in 6.2 mi West 8.1 mph - N/A   Partly Cloudy